[[{"header":{"parameterUnit":"m.s-1","parameterCategory":1,"la1":30.2991,"la2":30.254,"lo1":-89.0895,"lo2":-89.0444,"dy":0.0017,"dx":0.0017,"nx":28,"ny":28,"refTime":"2025-09-06T09:00:00:Z","depth":0,"parameterNumber":2,"parameterNumberName":"U-component_of_WINDS"},"data":[0,0,0,0,0,0,0,0,0,0,0,0,0,0,0,0,0,0,0,0,0,0,0,0,0,0,0,0,0,0,0,0,0,0,0,0,0,0,0,0,0,0,0,0,0,0,0,0,0,0,0,0,0,0,0,0,0,0,-0.4301,-0.4301,0,-0.4286,-0.4286,-0.4286,-0.4255,-0.4254,-0.4254,-0.4253,-0.4237,-0.4237,-0.4237,0,0,0,0,0,0,0,0,0,0,0,0,0,-0.4304,-0.4304,-0.4301,-0.4301,-0.4301,-0.4286,-0.4286,-0.4286,-0.4255,-0.4254,-0.4253,-0.4253,-0.4237,-0.4237,-0.4237,0,0,0,0,0,0,0,0,0,0,0,0,0,-0.4297,-0.4304,-0.4301,-0.4284,-0.4282,-0.4286,-0.4286,-0.4286,-0.4255,-0.4254,-0.4253,-0.4252,-0.4237,-0.4237,-0.4237,-0.4257,0,0,-0.4238,-0.4238,0,0,0,0,0,0,0,0,-0.4298,-0.4297,-0.4286,-0.4285,-0.4283,-0.4271,-0.4281,-0.4276,-0.4255,-0.4265,-0.4253,-0.4252,-0.4249,-0.4248,-0.4248,-0.4257,-0.4256,-0.4238,-0.4238,-0.4238,-0.4238,0,0,0,0,0,0,0,-0.4298,-0.4298,-0.4295,-0.4286,-0.4284,-0.4277,-0.4275,-0.428,-0.4263,-0.4264,-0.4262,-0.4261,-0.4248,-0.4247,-0.4247,-0.4256,-0.4238,-0.4238,-0.4238,-0.4239,-0.4281,-0.4282,0,0,0,0,0,0,-0.4301,-0.4298,-0.4296,-0.4295,-0.4288,-0.4277,-0.4275,-0.4276,-0.4262,-0.4259,-0.4261,-0.4259,-0.4247,-0.4247,-0.4246,-0.4269,-0.4238,-0.4239,-0.4239,-0.428,-0.4282,-0.4283,0,0,0,0,0,0,-0.4301,-0.4301,-0.4296,-0.4296,-0.4295,-0.4278,-0.428,-0.4276,-0.4275,-0.426,-0.4257,-0.4264,-0.4247,-0.4246,-0.4255,-0.4268,-0.4239,-0.4239,-0.4279,-0.4281,-0.4282,-0.4315,0,0,0,0,0,0,-0.4301,-0.4301,-0.4309,-0.4296,-0.4295,-0.4305,-0.428,-0.4277,-0.4276,-0.4273,-0.4262,-0.4259,-0.4246,-0.4255,-0.4255,-0.4268,-0.4239,-0.4278,-0.428,-0.4282,-0.4313,-0.4317,-0.4321,0,0,0,0,0,-0.4302,-0.4318,-0.4309,-0.4309,-0.4304,-0.4306,-0.4305,-0.429,-0.4277,-0.4284,-0.4275,-0.4259,-0.4267,-0.4256,-0.4256,-0.4269,-0.4277,-0.4279,-0.4281,-0.4311,-0.4316,-0.4321,0,0,0,0,0,0,-0.4332,-0.4316,-0.4306,-0.4319,-0.4314,-0.4301,-0.4309,-0.4296,-0.4295,-0.4292,-0.4273,-0.4271,-0.4283,-0.4277,-0.4265,-0.4288,-0.4269,-0.4272,-0.4292,-0.4297,-0.4301,-0.4302,-0.4239,0,0,0,0,0,-0.434,-0.4344,-0.433,-0.4343,-0.4341,-0.4326,-0.4326,-0.4315,-0.4309,-0.4307,-0.4298,-0.4293,-0.4294,-0.4295,-0.4295,-0.4312,-0.4309,-0.4321,-0.4325,-0.4329,-0.4331,-0.434,-0.4345,-0.429,-0.429,-0.429,0,0,-0.4357,-0.4349,-0.4352,-0.4349,-0.4343,-0.4348,-0.4324,-0.4329,-0.4332,-0.4308,-0.4316,-0.4309,-0.4302,-0.4315,-0.4321,-0.4311,-0.4346,-0.4332,-0.4335,-0.4335,-0.4343,-0.4348,-0.4353,-0.4291,-0.4291,-0.4291,0,0,-0.439,-0.4385,-0.4395,-0.4391,-0.4383,-0.4374,-0.4376,-0.4365,-0.436,-0.4368,-0.435,-0.4353,-0.4355,-0.4352,-0.435,-0.4383,-0.4369,-0.4384,-0.4407,-0.4416,-0.442,-0.4424,-0.4436,-0.444,-0.4386,-0.4386,-0.4386,0,-0.4412,-0.4418,-0.4402,-0.4408,-0.4408,-0.4386,-0.4397,-0.4393,-0.4387,-0.4387,-0.4376,-0.4379,-0.4373,-0.4385,-0.4393,-0.4392,-0.4395,-0.4385,-0.4421,-0.4424,-0.4428,-0.4439,-0.4444,-0.4388,-0.4388,-0.4388,-0.4387,0,-0.4445,-0.445,-0.4459,-0.4453,-0.4454,-0.4462,-0.4448,-0.445,-0.4439,-0.4431,-0.444,-0.4432,-0.443,-0.4432,-0.4421,-0.4443,-0.4437,-0.4424,-0.4405,-0.4435,-0.4445,-0.445,-0.4391,-0.439,-0.4389,-0.4389,0,0,-0.4496,-0.4483,-0.4486,-0.4484,-0.4475,-0.4478,-0.4486,-0.4485,-0.4488,-0.4484,-0.4491,-0.4494,-0.4482,-0.448,-0.4469,-0.4476,-0.4504,-0.4462,-0.4462,-0.447,-0.4528,-0.4538,-0.4543,-0.4495,-0.4495,-0.4496,-0.4529,0,-0.4527,-0.454,-0.4526,-0.4542,-0.4546,-0.4526,-0.4533,-0.4529,-0.4522,-0.4524,-0.4516,-0.4518,-0.4502,-0.4501,-0.4508,-0.4499,-0.4515,-0.4497,-0.4501,-0.4501,-0.4503,-0.4549,-0.4559,-0.459,-0.4533,-0.4533,-0.4534,0,-0.4564,-0.4563,-0.458,-0.4571,-0.4572,-0.4578,-0.4577,-0.458,-0.4575,-0.4569,-0.4567,-0.4554,-0.4562,-0.4544,-0.4554,-0.4542,-0.4543,-0.4539,-0.454,-0.4539,-0.4519,-0.455,-0.46,-0.4604,-0.454,-0.4539,-0.4539,0,-0.46,-0.4603,-0.4613,-0.4611,-0.4601,-0.4607,-0.4603,-0.4597,-0.4597,-0.4596,-0.4596,-0.4596,-0.4596,-0.4596,-0.4584,-0.4571,-0.4596,-0.4576,-0.4591,-0.4592,-0.4597,-0.4597,-0.4648,-0.4598,-0.4598,-0.4598,-0.4598,0,-0.4636,-0.4647,-0.4629,-0.4635,-0.4647,-0.4632,-0.4644,-0.4638,-0.4633,-0.4638,-0.4621,-0.4626,-0.4609,-0.4613,-0.4603,-0.4613,-0.4613,-0.4609,-0.4606,-0.461,-0.4611,-0.461,-0.4608,-0.4599,-0.4599,-0.4599,-0.4598,0,-0.4677,-0.4666,-0.4676,-0.4666,-0.4664,-0.4673,-0.4664,-0.467,-0.4662,-0.4668,-0.4669,-0.4656,-0.466,-0.4647,-0.4648,-0.4642,-0.4658,-0.4651,-0.4659,-0.4657,-0.4673,-0.4672,-0.4726,-0.4732,-0.4678,-0.4679,-0.4679,0,-0.4701,-0.4709,-0.47,-0.4702,-0.4699,-0.4703,-0.4704,-0.469,-0.4691,-0.4687,-0.4693,-0.4695,-0.4696,-0.4702,-0.4693,-0.4694,-0.4688,-0.4707,-0.4688,-0.4692,-0.4689,-0.4688,-0.4689,-0.4711,-0.4711,-0.4712,-0.4712,0,-0.4744,-0.4738,-0.474,-0.474,-0.4742,-0.4741,-0.4739,-0.4742,-0.4727,-0.473,-0.4733,-0.4734,-0.4736,-0.4738,-0.4738,-0.4734,-0.4721,-0.4719,-0.4722,-0.4726,-0.4731,-0.4729,-0.467,-0.4717,-0.4717,-0.4716,-0.4716,-0.4716,-0.4777,-0.4783,-0.4778,-0.4781,-0.4779,-0.4778,-0.4783,-0.4776,-0.4779,-0.4779,-0.4771,-0.4776,-0.4772,-0.477,-0.4767,-0.4772,-0.4763,-0.4768,-0.4769,-0.4771,-0.4774,-0.4731,-0.4771,-0.4771,-0.4771,-0.4771,-0.4771,0,-0.4819,-0.4815,-0.4818,-0.4817,-0.4819,-0.4807,-0.4805,-0.4808,-0.4813,-0.4811,-0.4812,-0.4817,-0.4819,-0.4811,-0.4813,-0.4818,-0.4812,-0.4819,-0.4818,-0.4818,-0.4781,-0.4778,-0.4824,-0.4824,-0.4824,-0.4823,-0.4823,-0.4823,-0.4841,-0.4851,-0.4846,-0.4855,-0.4851,-0.4857,-0.4857,-0.4856,-0.4854,-0.486,-0.4862,-0.4857,-0.4852,-0.4854,-0.4856,-0.4853,-0.4855,-0.4864,-0.4859,-0.4825,-0.482,-0.4815,-0.4812,-0.4864,-0.4864,-0.4895,-0.4896,-0.4896]},{"header":{"parameterUnit":"m.s-1","parameterCategory":1,"la1":30.2991,"la2":30.254,"lo1":-89.0895,"lo2":-89.0444,"dy":0.0017,"dx":0.0017,"nx":28,"ny":28,"refTime":"2025-09-06T09:00:00:Z","depth":0,"parameterNumber":3,"parameterNumberName":"V-component_of_WINDS"},"data":[0,0,0,0,0,0,0,0,0,0,0,0,0,0,0,0,0,0,0,0,0,0,0,0,0,0,0,0,0,0,0,0,0,0,0,0,0,0,0,0,0,0,0,0,0,0,0,0,0,0,0,0,0,0,0,0,0,0,1.8603,1.8602,0,1.8532,1.8531,1.853,1.8552,1.8554,1.8556,1.8557,1.8477,1.8474,1.847,0,0,0,0,0,0,0,0,0,0,0,0,0,1.875,1.8748,1.8603,1.8602,1.8601,1.8532,1.8531,1.853,1.8552,1.8554,1.8556,1.8558,1.8478,1.8474,1.847,0,0,0,0,0,0,0,0,0,0,0,0,0,1.8683,1.8747,1.8603,1.8604,1.8604,1.8532,1.8531,1.853,1.8552,1.8554,1.8556,1.8559,1.848,1.8474,1.8469,1.839,0,0,1.8453,1.845,0,0,0,0,0,0,0,0,1.8687,1.8678,1.8605,1.8604,1.8603,1.8554,1.8554,1.8483,1.8551,1.8571,1.8557,1.856,1.85,1.8493,1.8475,1.8386,1.8383,1.8452,1.8449,1.8447,1.8445,0,0,0,0,0,0,0,1.8692,1.8681,1.8574,1.8604,1.8603,1.8606,1.8599,1.854,1.8523,1.857,1.8571,1.8563,1.85,1.848,1.8473,1.8382,1.8452,1.8448,1.8444,1.8442,1.8221,1.8219,0,0,0,0,0,0,1.8698,1.8685,1.8577,1.8572,1.8652,1.8601,1.8593,1.8567,1.8524,1.852,1.8561,1.8564,1.8488,1.8479,1.847,1.8372,1.8447,1.8442,1.8439,1.8224,1.8221,1.8218,0,0,0,0,0,0,1.8701,1.8688,1.858,1.8629,1.8615,1.8596,1.8566,1.8564,1.8544,1.8518,1.8514,1.8544,1.8489,1.8478,1.841,1.837,1.8439,1.8435,1.8227,1.8223,1.8219,1.8177,0,0,0,0,0,0,1.8705,1.8689,1.8661,1.8628,1.8613,1.8522,1.8564,1.8561,1.8536,1.8539,1.85,1.8496,1.849,1.8417,1.8404,1.8363,1.843,1.8231,1.8225,1.8221,1.8181,1.8172,1.8163,0,0,0,0,0,1.871,1.8651,1.8659,1.8646,1.8577,1.852,1.8511,1.8507,1.8533,1.8502,1.8485,1.8497,1.8377,1.841,1.8396,1.8353,1.8233,1.8227,1.8221,1.8185,1.8174,1.8164,0,0,0,0,0,0,1.8677,1.8647,1.8656,1.8584,1.8555,1.8524,1.8486,1.8495,1.8456,1.8461,1.8456,1.8447,1.8376,1.8358,1.8396,1.8272,1.8308,1.8299,1.8286,1.8275,1.8266,1.827,1.8426,0,0,0,0,0,1.8662,1.862,1.8595,1.8534,1.8519,1.8505,1.848,1.848,1.8448,1.8435,1.8413,1.838,1.8334,1.8304,1.8261,1.818,1.817,1.8143,1.8134,1.8127,1.8117,1.807,1.8057,1.8198,1.8198,1.8198,0,0,1.8629,1.8607,1.8581,1.8527,1.8504,1.8458,1.8494,1.8445,1.841,1.8427,1.8361,1.8344,1.8306,1.823,1.8196,1.8213,1.8077,1.8119,1.8113,1.8108,1.8062,1.8049,1.8037,1.8194,1.8195,1.8196,0,0,1.8545,1.8526,1.8472,1.8449,1.8414,1.8405,1.8392,1.836,1.8349,1.8284,1.8295,1.8252,1.8174,1.8146,1.8122,1.8026,1.8034,1.8012,1.7963,1.7917,1.7906,1.7896,1.7858,1.7845,1.8004,1.8004,1.8004,0,1.8507,1.8441,1.8442,1.8391,1.8366,1.8382,1.8325,1.8301,1.8254,1.8234,1.8255,1.8157,1.8133,1.8049,1.8025,1.8007,1.7988,1.8015,1.7908,1.7898,1.7888,1.7852,1.7838,1.8001,1.8001,1.8002,1.8002,0,1.8395,1.8349,1.8309,1.8264,1.8234,1.8181,1.8171,1.814,1.8143,1.813,1.8061,1.8033,1.7983,1.7964,1.7965,1.7879,1.7891,1.791,1.7945,1.7872,1.7838,1.7824,1.7997,1.7998,1.7999,1.8,0,0,1.8286,1.8243,1.8228,1.8207,1.817,1.8132,1.8078,1.8032,1.8004,1.797,1.7922,1.7856,1.7873,1.7845,1.7843,1.7803,1.7724,1.7826,1.7825,1.7805,1.7624,1.7607,1.7591,1.7732,1.7729,1.7727,1.7626,0,1.8197,1.8104,1.8103,1.8016,1.7971,1.7985,1.7937,1.7908,1.7895,1.7853,1.7838,1.779,1.7818,1.78,1.7762,1.7742,1.7687,1.775,1.7683,1.768,1.7688,1.7574,1.7557,1.7462,1.7613,1.761,1.7609,0,1.8079,1.8043,1.7952,1.792,1.7901,1.7859,1.7814,1.7775,1.7741,1.7734,1.7703,1.7707,1.7648,1.7688,1.7605,1.7648,1.762,1.7606,1.7603,1.7593,1.7638,1.7558,1.7433,1.7417,1.7588,1.759,1.7591,0,1.8004,1.7933,1.7869,1.7851,1.7813,1.7782,1.7764,1.7732,1.7703,1.7664,1.7644,1.7598,1.7572,1.7535,1.7524,1.7555,1.744,1.748,1.7429,1.7429,1.7402,1.7403,1.7266,1.739,1.739,1.7391,1.7391,0,1.7902,1.7845,1.7835,1.7795,1.773,1.7729,1.7664,1.7648,1.7619,1.7574,1.7584,1.7541,1.7532,1.7486,1.7478,1.7408,1.7397,1.7387,1.7385,1.7384,1.7385,1.7363,1.7368,1.7387,1.7388,1.7388,1.7389,0,1.7806,1.7798,1.7728,1.7698,1.7689,1.7642,1.7614,1.7574,1.7563,1.7506,1.7492,1.7473,1.7419,1.7407,1.7342,1.7337,1.7253,1.7259,1.7265,1.7264,1.7212,1.7216,1.7054,1.7031,1.7174,1.7172,1.7171,0,1.774,1.7696,1.7662,1.7633,1.7614,1.7568,1.7539,1.7535,1.7504,1.7461,1.7425,1.7373,1.7331,1.7244,1.7222,1.7172,1.7175,1.7122,1.7167,1.7167,1.7169,1.717,1.7164,1.7112,1.711,1.7109,1.7108,0,1.7622,1.7619,1.7578,1.7535,1.75,1.7465,1.7432,1.7407,1.7398,1.7362,1.7308,1.7276,1.7211,1.7157,1.7107,1.7086,1.7093,1.7094,1.7079,1.7076,1.708,1.7073,1.7237,1.7097,1.7098,1.7099,1.71,1.71,1.7536,1.7497,1.7466,1.7418,1.7393,1.7362,1.7322,1.7306,1.7262,1.721,1.721,1.715,1.7114,1.7048,1.7024,1.6975,1.6991,1.697,1.6964,1.6957,1.6951,1.7091,1.6966,1.6966,1.6967,1.6967,1.6967,0,1.7415,1.7396,1.7353,1.7306,1.7268,1.7283,1.7246,1.7212,1.716,1.7128,1.7086,1.7023,1.6971,1.6946,1.6893,1.6859,1.6861,1.6845,1.6845,1.6839,1.6942,1.6958,1.6844,1.6844,1.6844,1.6844,1.6844,1.6844,1.7347,1.728,1.7274,1.7194,1.7175,1.7118,1.7095,1.7065,1.7038,1.6968,1.6925,1.6911,1.6879,1.6825,1.6777,1.677,1.6749,1.673,1.6725,1.682,1.6833,1.6844,1.686,1.6726,1.6726,1.6626,1.6625,1.6624]}]]